STARLINK-4393 (53470 NORAD) Tracking and Keplerian Element Data

This shows tracking and keplerian element data for the satellite.

Feedback or suggestion? Click here.




ElementValue
Catalog53470
NameSTARLINK-4393
Epoch Orbit1550
Epoch Day325.17884034
Epoch Year2022
RAAN84.2313
Inclination97.6524
Eccentricity7.61E-05
Argument of Perigee345.4872
Mean Anonmoly14.6331
Mean Motion15.01260793
Decay Rate-4.1E-06
L11 53470U 22099F 22325.17884034 -.00000410 00000+0 -27362-4 0 9990
L22 53470 97.6524 84.2313 0000761 345.4872 14.6331 15.01260793 15505



Live tracking and technical data element details for STARLINK-4393 (NORAD 53470). STARLINK-4393 can be tracked NOW for your location showing map with azimuth and elevation plus other details from your city location.







IsCatalogInMostPopularTable: catalog: 53470, numindb: 4
Update: records affected: 1



GetName: 53470 STARLINK-4393

Hit Count: updated at: Thu, 08 Dec 2022 20:52:39 GMT